{"data":{"norad_id":56463,"epoch":"2026-09-20T13:28:44.782752Z","epoch_age_seconds":106652,"freshness":"FRESH","line1":"1 56463U 23064R   26263.56162943 -.00000052  00000+0  34113-5 0  9998","line2":"2 56463  70.0004  13.2026 0003191 269.5651  90.5142 14.98330783184436","mean_motion":14.98330783,"eccentricity":0.0003191,"inclination_deg":70.0004,"raan_deg":13.2026,"arg_perigee_deg":269.5651,"mean_anomaly_deg":90.5142,"bstar":3.4113e-6,"rev_number":18443,"period_min":96.10694890195,"perigee_km":569.83566380372,"apogee_km":574.27127536141,"semimajor_km":6950.1904695826,"source":"CELESTRAK","updated_at":"2026-09-21T09:00:33.444087Z"}}